User: anonymous   Login
Location: Unspecified
(0.0000°N, 0.0000°E)
Time: 20:10:42
(UTC+00:00)
Language:

STARLINK-4695 - Orbit

View from above orbital plane
View from above orbital plane
View from above satellite
View from above satellite

Ground track
Ground track

The orbit is defined by the following mean orbital elements,

1 53718U          26144.62725390 +.00000000 +00000-0 +18695-4 0 00001
2 53718  53.2160 273.4869 0001232  87.7106 272.4027 15.08840277    05
Epoch (UTC): 24 May 2026 15:03:14
Eccentricity: 0.0001232
inclination: 53.2160°
perigee height: 539 km
apogee height: 541 km
right ascension of ascending node: 273.4869°
argument of perigee: 87.7106°
revolutions per day: 15.08840277
mean anomaly at epoch: 272.4027°

The dashed part of the orbit path shows where the satellite is in the earth's shadow,  

DLR